FW6276 Weather Reports


time (UTC)temp
F
wind
direction
speed
knots
gust
knots
rain 1hr
in
rain 24hr
in
rain mn
in
humidity
%
barometer
mb
20260505122005 63 153 1.7 2.6 0.00 0.00 0.00 69 1018.1
20260505121521 62 159 0.9 2.6 0.00 0.00 0.00 71 1018.0
20260505121007 61 112 0.9 1.7 0.00 0.00 0.00 71 1018.0
20260505120510 61 129 0.9 1.7 0.00 0.00 0.00 72 1017.9
20260505120033 61 150 0.9 1.7 0.00 0.00 0.00 71 1017.9
20260505115509 61 150 0.9 0.9 0.00 0.00 0.00 71 1017.9
20260505115012 61 150 0.9 0.9 0.00 0.00 0.00 69 1017.9
20260505114533 62 169 0.0 0.9 0.00 0.00 0.00 69 1018.0
20260505114010 61 179 0.0 0.9 0.00 0.00 0.00 71 1018.0
20260505113508 60 159 0.0 0.9 0.00 0.00 0.00 72 1017.9
20260505113011 60 158 0.9 0.9 0.00 0.00 0.00 73 1017.9
20260505112503 59 155 0.9 0.9 0.00 0.00 0.00 73 1017.8
20260505112003 59 192 0.0 0.9 0.00 0.00 0.00 73 1017.7
20260505111517 59 192 0.0 0.9 0.00 0.00 0.00 73 1017.8
20260505111007 59 192 0.0 0.9 0.00 0.00 0.00 72 1017.6
20260505110507 59 229 0.0 0.9 0.00 0.00 0.00 73 1017.6
20260505102010 51 229 0.9 0.9 0.00 0.00 0.00 85 1017.1
20260505101515 52 233 0.0 0.9 0.00 0.00 0.00 84 1017.1
20260505101006 52 233 0.0 0.9 0.00 0.00 0.00 84 1016.9
20260505100505 52 231 0.0 1.7 0.00 0.00 0.00 83 1016.9
20260505100018 52 231 0.9 1.7 0.00 0.00 0.00 83 1016.8
20260505095507 52 232 0.9 1.7 0.00 0.00 0.00 83 1016.8
20260505095010 52 233 0.9 1.7 0.00 0.00 0.00 83 1016.7
20260505094523 52 229 0.9 1.7 0.00 0.00 0.00 83 1016.7
20260505094007 52 222 0.9 1.7 0.00 0.00 0.00 83 1016.7
20260505093511 52 225 0.9 1.7 0.00 0.00 0.00 83 1016.7
20260505093027 53 224 0.0 0.9 0.00 0.00 0.00 82 1016.7
20260505092508 53 223 0.9 0.9 0.00 0.00 0.00 82 1016.7
20260505092013 53 222 0.9 0.9 0.00 0.00 0.00 82 1016.7
20260505091530 53 216 0.0 0.9 0.00 0.00 0.00 81 1016.6
20260505091013 53 210 0.0 0.9 0.00 0.00 0.00 81 1016.6
20260505090509 54 213 0.0 0.9 0.00 0.00 0.00 81 1016.7
20260505090012 54 213 0.0 0.9 0.00 0.00 0.00 79 1016.7
20260505085504 54 213 0.0 0.9 0.00 0.00 0.00 78 1016.7
20260505085007 55 213 0.0 0.9 0.00 0.00 0.00 78 1016.7
20260505084519 55 213 0.0 0.9 0.00 0.00 0.00 77 1016.6
20260505084012 55 213 0.0 0.9 0.00 0.00 0.00 77 1016.6
20260505083510 55 239 0.0 0.9 0.00 0.00 0.00 77 1016.6
20260505083026 56 238 0.0 0.9 0.00 0.00 0.00 76 1016.6
20260505082507 56 238 0.0 0.9 0.00 0.00 0.00 77 1016.6
20260505082008 56 238 0.9 0.9 0.00 0.00 0.00 76 1016.6
20260505081536 56 179 0.0 1.7 0.00 0.00 0.00 76 1016.6
20260505081009 56 216 0.9 2.6 0.00 0.00 0.00 75 1016.5
20260505080509 57 237 0.0 2.6 0.00 0.00 0.00 75 1016.5
20260505080044 57 210 0.9 2.6 0.00 0.00 0.00 74 1016.5
20260505075509 57 219 0.9 2.6 0.00 0.00 0.00 74 1016.5
20260505075011 57 210 0.9 2.6 0.00 0.00 0.00 74 1016.4
20260505074516 57 195 0.9 2.6 0.00 0.00 0.00 74 1016.3
20260505074007 57 164 0.9 2.6 0.00 0.00 0.00 73 1016.2
20260505073505 58 188 1.7 3.5 0.00 0.00 0.00 72 1016.2
20260505073021 58 219 0.9 3.5 0.00 0.00 0.00 72 1016.2
20260505072502 58 191 0.9 3.5 0.00 0.00 0.00 72 1016.3
20260505072003 58 192 1.7 3.5 0.00 0.00 0.00 72 1016.3
20260505071505 58 229 0.9 3.5 0.00 0.00 0.00 72 1016.3
20260505071005 58 134 0.9 5.2 0.00 0.00 0.00 71 1016.3
20260505070503 59 188 1.7 5.2 0.00 0.00 0.00 70 1016.3
20260505070008 59 182 1.7 5.2 0.00 0.00 0.00 71 1016.3
20260505065503 59 249 1.7 5.2 0.00 0.00 0.00 70 1016.3
20260505065003 59 148 1.7 2.6 0.00 0.00 0.00 70 1016.4
20260505064512 59 206 1.7 4.3 0.00 0.00 0.00 70 1016.3
20260505064007 59 187 1.7 4.3 0.00 0.00 0.00 70 1016.3
20260505063506 59 188 1.7 4.3 0.00 0.00 0.00 70 1016.3
20260505063016 59 184 0.9 4.3 0.00 0.00 0.00 70 1016.2
20260505062508 59 192 2.6 4.3 0.00 0.00 0.00 69 1016.3
20260505062006 59 171 1.7 3.5 0.00 0.00 0.00 70 1016.3
20260505061521 60 217 1.7 3.5 0.00 0.00 0.00 69 1016.2
20260505061003 60 166 0.9 3.5 0.00 0.00 0.00 69 1016.2
20260505060504 60 259 0.9 3.5 0.00 0.00 0.00 69 1016.3
20260505060004 60 162 0.9 3.5 0.00 0.00 0.00 68 1016.2
20260505055505 60 191 1.7 4.3 0.00 0.00 0.00 68 1016.3
20260505055003 61 238 1.7 4.3 0.00 0.00 0.00 67 1016.3
20260505054510 61 194 1.7 5.2 0.00 0.00 0.00 66 1016.4
20260505054003 61 195 1.7 6.1 0.00 0.00 0.00 66 1016.4
20260505053504 61 203 1.7 6.1 0.00 0.00 0.00 65 1016.5
20260505053018 61 186 2.6 5.2 0.00 0.00 0.00 65 1016.5
20260505052513 62 169 2.6 5.2 0.00 0.00 0.00 66 1016.6
20260505052007 62 243 2.6 5.2 0.00 0.00 0.00 64 1016.6
20260505051522 62 174 1.7 5.2 0.00 0.00 0.00 64 1016.7
20260505051009 62 197 1.7 5.2 0.00 0.00 0.00 64 1016.7
20260505050511 62 234 1.7 5.2 0.00 0.00 0.00 65 1016.7
20260505041531 63 136 3.5 7.0 0.00 0.00 0.00 62 1016.8
20260505041004 63 222 3.5 7.0 0.00 0.00 0.00 62 1016.8
20260505040507 63 193 2.6 7.0 0.00 0.00 0.00 62 1016.8
20260505040020 64 206 2.6 7.0 0.00 0.00 0.00 62 1016.7
20260505035507 64 160 2.6 9.6 0.00 0.00 0.00 62 1016.7
20260505035008 64 99 3.5 9.6 0.00 0.00 0.00 64 1016.8
20260505034524 63 190 2.6 6.1 0.00 0.00 0.00 62 1016.8
20260505034006 63 187 2.6 6.1 0.00 0.00 0.00 63 1016.8
20260505033507 63 214 2.6 4.3 0.00 0.00 0.00 63 1016.9
20260505033007 63 198 0.9 4.3 0.00 0.00 0.00 62 1016.8
20260505032504 64 129 2.6 4.3 0.00 0.00 0.00 62 1016.8
20260505032005 63 186 2.6 4.3 0.00 0.00 0.00 62 1016.8
20260505031511 64 229 1.7 4.3 0.00 0.00 0.00 63 1016.8
20260505031009 64 231 1.7 4.3 0.00 0.00 0.00 62 1016.8
20260505030504 64 244 2.6 4.3 0.00 0.00 0.00 61 1016.7
20260505030017 64 257 1.7 4.3 0.00 0.00 0.00 61 1016.7
20260505025505 64 191 1.7 4.3 0.00 0.00 0.00 61 1016.7
20260505025007 64 181 1.7 4.3 0.00 0.00 0.00 60 1016.7
20260505024522 64 175 1.7 3.5 0.00 0.00 0.00 59 1016.7
20260505024007 64 134 1.7 4.3 0.00 0.00 0.00 59 1016.7
20260505023507 65 141 1.7 5.2 0.00 0.00 0.00 58 1016.7
20260505023033 65 176 0.9 5.2 0.00 0.00 0.00 57 1016.7
20260505022504 65 202 1.7 3.5 0.00 0.00 0.00 55 1016.6
20260505022004 65 153 1.7 4.3 0.00 0.00 0.00 55 1016.6
20260505021509 65 191 1.7 5.2 0.00 0.00 0.00 54 1016.5
20260505021006 65 209 1.7 5.2 0.00 0.00 0.00 52 1016.5
20260505020503 65 197 1.7 5.2 0.00 0.00 0.00 51 1016.5
20260505020018 65 186 1.7 4.3 0.00 0.00 0.00 49 1016.4
20260505015507 66 167 1.7 2.6 0.00 0.00 0.00 47 1016.3
20260505015005 66 210 0.9 3.5 0.00 0.00 0.00 47 1016.2
20260505014518 66 234 0.9 3.5 0.00 0.00 0.00 47 1016.3
20260505014008 66 174 0.9 1.7 0.00 0.00 0.00 47 1016.1
20260505013507 66 207 0.9 2.6 0.00 0.00 0.00 46 1016.0
20260505013025 66 193 0.9 2.6 0.00 0.00 0.00 46 1016.0
20260505012512 67 219 0.9 1.7 0.00 0.00 0.00 45 1015.9
20260505012011 67 172 0.9 1.7 0.00 0.00 0.00 45 1015.8
20260505011530 67 214 0.0 2.6 0.00 0.00 0.00 45 1015.7
20260505011004 67 193 0.9 2.6 0.00 0.00 0.00 45 1015.7
20260505010504 68 212 0.9 1.7 0.00 0.00 0.00 44 1015.6
20260505010010 68 248 0.9 1.7 0.00 0.00 0.00 43 1015.6
20260505005504 68 203 0.9 1.7 0.00 0.00 0.00 43 1015.5
20260505005006 69 200 0.9 1.7 0.00 0.00 0.00 42 1015.5
20260505004527 69 197 0.0 1.7 0.00 0.00 0.00 42 1015.4
20260505004004 69 219 0.0 1.7 0.00 0.00 0.00 42 1015.4
20260505003506 70 202 0.9 2.6 0.00 0.00 0.00 41 1015.4
20260505003019 70 183 0.9 2.6 0.00 0.00 0.00 41 1015.3
20260505002510 70 191 0.9 2.6 0.00 0.00 0.00 41 1015.2
20260505002008 71 198 0.9 2.6 0.00 0.00 0.00 41 1015.2
20260505001522 71 189 0.9 3.5 0.00 0.00 0.00 40 1015.2
20260505001010 71 190 1.7 5.2 0.00 0.00 0.00 41 1015.3
20260505000509 72 195 0.9 5.2 0.00 0.00 0.00 40 1015.2
20260505000031 72 188 1.7 4.3 0.00 0.00 0.00 38 1015.2
20260504235504 72 170 0.9 5.2 0.00 0.00 0.00 38 1015.1
20260504235005 73 177 1.7 5.2 0.00 0.00 0.00 39 1015.0
20260504234512 73 212 3.5 5.2 0.00 0.00 0.00 37 1015.0
20260504234004 74 186 1.7 6.1 0.00 0.00 0.00 37 1014.9
20260504233508 74 184 2.6 7.8 0.00 0.00 0.00 35 1014.7
20260504233017 74 204 3.5 7.8 0.00 0.00 0.00 36 1014.6
20260504232506 74 176 1.7 8.7 0.00 0.00 0.00 35 1014.6
20260504232011 75 173 2.6 8.7 0.00 0.00 0.00 36 1014.6
20260504231525 75 163 2.6 7.0 0.00 0.00 0.00 35 1014.5
20260504231007 75 195 2.6 7.0 0.00 0.00 0.00 35 1014.4
20260504230507 75 184 2.6 7.0 0.00 0.00 0.00 33 1014.4
20260504230024 76 173 3.5 7.8 0.00 0.00 0.00 33 1014.5
20260504225510 76 188 4.3 7.8 0.00 0.00 0.00 34 1014.5
20260504225008 76 150 3.5 8.7 0.00 0.00 0.00 31 1014.4
20260504224529 77 190 3.5 8.7 0.00 0.00 0.00 31 1014.4
20260504224005 77 175 2.6 8.7 0.00 0.00 0.00 30 1014.4
20260504223505 77 194 2.6 7.0 0.00 0.00 0.00 32 1014.4
20260504223014 77 203 2.6 8.7 0.00 0.00 0.00 31 1014.4
20260504222509 77 164 3.5 9.6 0.00 0.00 0.00 29 1014.5
20260504222009 78 229 6.1 9.6 0.00 0.00 0.00 29 1014.4
20260504221520 78 163 5.2 8.7 0.00 0.00 0.00 28 1014.4
20260504221007 78 189 4.3 8.7 0.00 0.00 0.00 29 1014.4
20260504220507 78 195 3.5 9.6 0.00 0.00 0.00 28 1014.4
20260504220024 79 117 3.5 9.6 0.00 0.00 0.00 29 1014.4
20260504215503 79 181 3.5 9.6 0.00 0.00 0.00 27 1014.4
20260504215004 79 229 2.6 8.7 0.00 0.00 0.00 27 1014.4
20260504214511 79 180 4.3 8.7 0.00 0.00 0.00 29 1014.4
20260504214005 78 227 4.3 12.2 0.00 0.00 0.00 28 1014.4
20260504213504 79 226 3.5 12.2 0.00 0.00 0.00 30 1014.3
20260504213033 79 91 3.5 8.7 0.00 0.00 0.00 27 1014.3
20260504212505 79 242 3.5 7.8 0.00 0.00 0.00 25 1014.3
20260504212009 79 176 2.6 9.6 0.00 0.00 0.00 30 1014.4
20260504211518 79 190 5.2 9.6 0.00 0.00 0.00 28 1014.3
20260504211007 79 222 4.3 7.8 0.00 0.00 0.00 26 1014.4
20260504210508 79 195 2.6 10.4 0.00 0.00 0.00 25 1014.4
20260504210023 79 158 5.2 10.4 0.00 0.00 0.00 26 1014.6
20260504205507 80 203 6.1 8.7 0.00 0.00 0.00 25 1014.6
20260504205007 80 173 1.7 10.4 0.00 0.00 0.00 25 1014.6
20260504204527 79 194 3.5 10.4 0.00 0.00 0.00 26 1014.6
20260504204003 80 240 1.7 7.0 0.00 0.00 0.00 26 1014.7
20260504203508 79 169 3.5 7.0 0.00 0.00 0.00 28 1014.4
20260504203011 79 184 3.5 7.8 0.00 0.00 0.00 26 1014.6
20260504202504 79 221 3.5 7.8 0.00 0.00 0.00 28 1014.7
20260504202005 79 209 5.2 7.8 0.00 0.00 0.00 27 1014.7
20260504201521 80 186 3.5 7.0 0.00 0.00 0.00 24 1014.7
20260504201010 80 147 3.5 7.8 0.00 0.00 0.00 26 1014.7
20260504200507 80 181 4.3 7.8 0.00 0.00 0.00 23 1014.8
20260504200019 79 259 4.3 7.0 0.00 0.00 0.00 25 1014.9
20260504195506 79 217 2.6 8.7 0.00 0.00 0.00 27 1015.0
20260504195011 79 246 3.5 8.7 0.00 0.00 0.00 27 1015.1
20260504194522 80 229 2.6 9.6 0.00 0.00 0.00 30 1015.1
20260504194008 80 37 5.2 9.6 0.00 0.00 0.00 26 1015.1
20260504193508 81 172 1.7 7.8 0.00 0.00 0.00 26 1015.1
20260504193025 81 112 2.6 7.0 0.00 0.00 0.00 25 1015.2
20260504192503 80 117 1.7 9.6 0.00 0.00 0.00 25 1015.2
20260504192004 80 176 1.7 9.6 0.00 0.00 0.00 25 1015.3
20260504191507 80 168 2.6 7.0 0.00 0.00 0.00 25 1015.2
20260504191003 80 188 2.6 10.4 0.00 0.00 0.00 25 1015.4
20260504190504 80 180 5.2 10.4 0.00 0.00 0.00 25 1015.4
20260504190014 80 173 3.5 6.1 0.00 0.00 0.00 25 1015.4
20260504185510 80 186 1.7 6.1 0.00 0.00 0.00 26 1015.5
20260504185011 80 180 1.7 6.1 0.00 0.00 0.00 28 1015.6
20260504184518 79 231 2.6 5.2 0.00 0.00 0.00 29 1015.8
20260504184007 80 58 0.9 4.3 0.00 0.00 0.00 28 1015.8
20260504183511 80 195 2.6 4.3 0.00 0.00 0.00 27 1015.8
20260504183024 80 171 1.7 5.2 0.00 0.00 0.00 24 1015.8
20260504182509 79 199 3.5 5.2 0.00 0.00 0.00 26 1015.8
20260504182010 79 171 1.7 9.6 0.00 0.00 0.00 30 1015.8
20260504181527 79 139 1.7 9.6 0.00 0.00 0.00 27 1015.9
20260504181010 78 197 4.3 9.6 0.00 0.00 0.00 25 1015.9
20260504180504 79 181 4.3 7.8 0.00 0.00 0.00 26 1015.8
20260504180010 79 198 1.7 5.2 0.00 0.00 0.00 27 1015.9
20260504175505 80 85 0.9 5.2 0.00 0.00 0.00 27 1016.1
20260504175009 79 326 1.7 4.3 0.00 0.00 0.00 29 1016.2
20260504174519 79 160 1.7 7.0 0.00 0.00 0.00 32 1016.3
20260504174009 78 204 2.6 7.0 0.00 0.00 0.00 29 1016.3
20260504173513 78 127 1.7 8.7 0.00 0.00 0.00 32 1016.3
20260504173033 79 195 4.3 8.7 0.00 0.00 0.00 28 1016.3
20260504172508 79 150 0.9 4.3 0.00 0.00 0.00 33 1016.4
20260504172009 78 217 1.7 7.8 0.00 0.00 0.00 32 1016.5
20260504171525 78 264 2.6 7.8 0.00 0.00 0.00 31 1016.6
20260504171009 78 175 1.7 5.2 0.00 0.00 0.00 30 1016.6
20260504170509 78 143 1.7 7.0 0.00 0.00 0.00 30 1016.7
20260504151013 76 27 0.9 4.3 0.00 0.00 0.00 38 1018.0
20260504150511 75 211 1.7 4.3 0.00 0.00 0.00 35 1018.0
20260504141008 69 116 2.6 4.3 0.00 0.00 0.00 48 1018.2
20260504140508 69 105 0.9 3.5 0.00 0.00 0.00 51 1018.2
20260504130504 62 168 2.6 4.3 0.00 0.00 0.00 64 1018.0